CST,Max TemperatureF,Mean TemperatureF,Min TemperatureF,Max Dew PointF,MeanDew PointF,Min DewpointF,Max Humidity, Mean Humidity, Min Humidity, Max Sea Level PressureIn, Mean Sea Level PressureIn, Min Sea Level PressureIn, Max VisibilityMiles, Mean VisibilityMiles, Min VisibilityMiles, Max Wind SpeedMPH, Mean Wind SpeedMPH, Max Gust SpeedMPH,PrecipitationIn, CloudCover, Events, WindDirDegrees
2014-1-1,10,6,1,4,1,-3,95,84,73,30.36,30.30,30.21,10,6,1,22,15,27,0.05,7,Snow,35
2014-1-2,11,1,-10,2,-3,-11,87,78,69,30.50,30.37,30.23,10,8,2,18,10,21,T,5,Snow,4
2014-1-3,18,2,-15,13,0,-19,87,80,73,30.47,30.14,29.75,10,10,8,33,17,39,0.00,3,,180
2014-1-4,31,23,15,27,17,6,85,76,67,30.09,29.87,29.70,10,9,6,29,17,33,0.00,6,,300
2014-1-5,15,0,-15,5,-8,-22,69,61,53,30.28,30.20,30.11,10,10,10,29,20,34,0.00,5,,348
2014-1-6,-12,-17,-22,-19,-24,-29,81,72,62,30.35,30.29,30.18,10,10,4,26,18,33,0.00,2,,291
2014-1-7,3,-6,-16,-6,-13,-20,83,74,65,30.33,30.29,30.23,10,10,10,15,6,20,0.00,2,,220
2014-1-8,8,-1,-10,-2,-7,-12,87,75,63,30.55,30.46,30.33,10,10,10,8,3,9,0.00,0,,305
2014-1-9,22,7,-8,22,6,-11,100,84,67,30.53,30.30,30.10,10,7,1,15,8,19,T,6,,147
2014-1-10,33,28,22,34,30,23,100,100,100,30.08,29.72,29.45,4,1,0,22,12,28,0.07,8,Fog,171
2014-1-11,33,30,27,32,28,25,100,89,78,29.82,29.61,29.44,10,8,4,23,15,27,T,7,,287
2014-1-12,38,31,23,32,28,23,100,85,70,29.81,29.64,29.53,10,9,3,32,14,40,0.00,2,,194
2014-1-13,36,29,21,32,27,20,100,85,69,29.77,29.66,29.55,10,10,7,24,10,31,0.00,4,,256
2014-1-14,34,24,14,33,21,7,100,87,73,30.02,29.73,29.51,10,6,0,37,21,47,0.08,7,Fog-Snow,273
2014-1-15,20,12,3,15,5,0,87,80,73,30.16,30.02,29.66,10,10,10,29,12,34,0.00,2,,260
2014-1-16,33,19,5,32,19,1,96,78,59,29.82,29.57,29.45,10,6,0,33,18,43,0.06,7,Fog-Snow,262
2014-1-17,14,5,-4,7,2,-4,87,79,70,30.05,29.95,29.83,10,10,5,20,11,23,T,5,,298
2014-1-18,19,9,-2,15,10,-4,100,92,83,29.97,29.75,29.61,10,4,0,24,11,30,0.19,6,Fog-Snow,123
2014-1-19,38,22,5,30,20,6,92,82,72,29.91,29.69,29.56,10,10,9,30,16,35,0.00,1,,247
2014-1-20,35,22,9,27,18,0,100,86,72,30.23,29.96,29.69,10,6,0,24,13,34,0.09,7,Fog-Snow,351
2014-1-21,9,2,-6,-2,-9,-14,79,70,61,30.43,30.32,30.18,10,10,10,22,10,29,0.00,3,,301
2014-1-22,11,3,-5,5,-2,-13,88,76,64,30.37,30.09,29.92,10,8,2,33,16,39,T,6,Snow,286
2014-1-23,-1,-7,-14,-11,-14,-17,87,73,59,30.71,30.61,30.39,10,10,9,24,12,30,0.00,0,,292
2014-1-24,32,10,-13,31,13,-15,100,83,66,30.50,29.78,29.45,10,7,1,32,21,39,0.05,6,Snow,231
2014-1-25,34,19,3,31,4,-6,92,69,46,29.94,29.74,29.45,10,9,4,35,18,43,T,3,,296
2014-1-26,26,12,-2,22,8,-9,92,79,66,30.01,29.59,29.38,10,4,0,45,21,56,0.29,7,Fog-Snow,284
2014-1-27,-2,-9,-17,-9,-16,-21,82,70,57,30.51,30.30,29.96,10,8,2,30,16,38,0.00,3,,295
2014-1-28,2,-9,-21,-7,-14,-24,86,74,62,30.50,30.40,30.28,10,10,10,20,8,26,0.00,0,,251
2014-1-29,23,6,-11,11,0,-14,92,73,53,30.26,30.09,29.83,10,10,10,24,12,30,0.00,0,,202
2014-1-30,31,20,9,27,18,4,92,75,57,30.01,29.68,29.52,10,7,0,36,21,43,0.09,5,Fog-Snow,227
2014-1-31,9,5,0,2,-3,-7,83,70,57,30.23,30.15,30.03,10,10,10,14,6,16,T,3,,346